Home > Time Zones > World Clock > Weather > Ghana > Accra > Past weeks

Flag for Ghana Weather past 2 weeks in Accra, Ghana

Now
86 °F

Scattered clouds.


Feels Like: 97 °F
Forecast: 81 / 86 °F
Wind: 13 mph from West

Location: Accra Airport

Current Time: May 22, 2015 at 10:38:32 AM

Latest Report: May 22, 2015 at 9:00 AM


Visibility: N/A

Pressure: 29.95 "Hg

Humidity: 75%

Dew point: 77 °F

Location of AccraLocation

Historic Weather in Accra — Graph

°F

Accra temperature yesterday

Maximum temperature yesterday: 90 °F (at 11:00 AM)
Minimum temperature yesterday: 77 °F (at 5:00 AM)
Average temperature yesterday: 84 °F

Past Weeks' High & Low Weather Summary

 TemperatureHumidityPressure
High91 °F (May 8, 1:00 PM)94% (May 8, 2:00 AM)29.98 "Hg (May 8, 2:00 AM)
Low77 °F (May 14, 7:00 PM)59% (May 8, 1:00 PM)29.77 "Hg (May 14, 4:00 PM)
Average84 °F80%29.88 "Hg
* Reported May 7 9:00 AM — May 22 9:00 AM, Accra, Weather by CustomWeather, © 2015

Note: Actual official high and low records may vary slightly from our data, if they occured in-between our weather recording intervals... More about our weather records

Advertising

Accra weather history for previous 24 hours

 ConditionsComfort  
Time TempWeatherWind HumidityBarometerVisibility
9:00 AM
Fri, May 22
86 °FScattered clouds.13 mph75%29.95 "HgN/A
8:00 AM84 °FPassing clouds.13 mph79%29.95 "HgN/A
7:00 AM82 °FThunderstorms. Passing clouds.9 mph84%29.92 "HgN/A
6:00 AM81 °FPassing clouds.7 mph89%29.89 "HgN/A
5:00 AM81 °FThunderstorms. Passing clouds.8 mph89%29.89 "HgN/A
4:00 AM81 °FThunderstorms. Passing clouds.6 mph89%29.89 "HgN/A
2:55 AM81 °FClear.5 mph89%29.89 "Hg10 mi
1:51 AM82 °FPassing clouds.7 mph89%29.89 "HgN/A
12:51 AM84 °FPassing clouds.8 mph84%29.92 "HgN/A
12:00 AM84 °FClear.8 mph62%29.92 "Hg10 mi
9:00 PM
Thu, May 21
84 °FThunderstorms. Passing clouds.10 mph84%29.95 "HgN/A
7:00 PM84 °FPassing clouds.9 mph79%29.92 "HgN/A
5:00 PM88 °FSunny.9 mph70%29.86 "Hg10 mi
4:00 PM88 °FPassing clouds.9 mph70%29.86 "HgN/A
3:00 PM90 °FPassing clouds.10 mph63%29.86 "HgN/A
2:00 PM90 °FPassing clouds.12 mph67%29.89 "HgN/A
1:00 PM90 °FPassing clouds.12 mph63%29.92 "HgN/A
12:00 PM90 °FPassing clouds.12 mph63%29.92 "HgN/A
11:00 AM90 °FScattered clouds.9 mph63%29.95 "HgN/A
10:00 AM88 °FPartly sunny.8 mph66%29.95 "HgN/A
Weather by CustomWeather, © 2015

See weather overviewHow to use our weather pages